Location: Bidwell Hollow
(37.7387°N, 90.1707°W)
Time: 23:16:09
(UTC+00:00)

Altair - Pass Details

Date: 16 May 2026
Orbit: 1501 x 1682 km, 47.2° (Epoch: 6 June)

Event Time Altitude Azimuth Distance (km) Brightness Sun altitude
Exits shadow 10:18:35 - 230° (SW) 4,151 9.1 -6.3°
Reaches altitude 10° 10:19:38 10° 229° (SW) 3,825 8.9 -6.2°
Maximum altitude 10:29:27 81° 144° (SE) 1,672 7.8 -4.5°
Drops below altitude 10° 10:39:36 10° 59° (ENE) 3,942 11.8 -2.7°
Sets 10:42:48 0° 59° (ENE) 4,937 13.3 -2.1°
